GW3439 Weather Reports


Display with metric or nautical units.
time (UTC)temp
F
wind
direction
speed
MPH
gust
MPH
rain 1hr
in
rain 24hr
in
rain mn
in
humidity
%
barometer
mb
20260504173002 75 119 4.0 14.0 0.00 0.00 0.00 49 1018.1
20260504172504 75 128 5.0 14.0 0.00 0.00 0.00 48 1018.2
20260504172001 74 103 6.0 13.0 0.00 0.00 0.00 46 1018.2
20260504171505 74 211 5.0 8.0 0.00 0.00 0.00 48 1018.3
20260504171003 73 121 1.0 10.0 0.00 0.00 0.00 47 1018.4
20260504170502 74 157 6.0 10.0 0.00 0.00 0.00 47 1018.5
20260504151004 70 213 2.0 7.0 0.00 0.00 0.00 56 1019.1
20260504150504 70 298 3.0 7.0 0.00 0.00 0.00 58 1019.1
20260504141004 67 223 1.0 7.0 0.00 0.00 0.00 69 1019.3
20260504140504 66 242 2.0 7.0 0.00 0.00 0.00 69 1019.3
20260504130508 62 281 1.0 4.0 0.00 0.00 0.00 76 1019.3
20260504110504 51 226 0.0 0.0 0.00 0.00 0.00 88 1018.6
20260504100501 51 226 0.0 0.0 0.00 0.00 0.00 87 1018.4
20260504082004 54 226 0.0 2.0 0.00 0.00 0.00 85 1018.7
20260504081523 55 226 0.0 3.0 0.00 0.00 0.00 85 1018.8
20260504081004 55 226 0.0 3.0 0.00 0.00 0.00 85 1018.7
20260504080507 56 226 1.0 2.0 0.00 0.00 0.00 85 1018.7
20260504050504 59 203 0.0 4.0 0.00 0.00 0.00 79 1020.1
20260504050013 59 203 1.0 3.0 0.00 0.00 0.00 79 1020.1
20260504045504 59 203 1.0 4.0 0.00 0.00 0.00 77 1020.1
20260504045006 60 203 1.0 4.0 0.00 0.00 0.00 77 1020.1
20260504044523 59 203 1.0 3.0 0.00 0.00 0.00 77 1020.1
20260504044009 59 203 0.0 4.0 0.00 0.00 0.00 78 1020.1
20260504043507 59 203 2.0 4.0 0.00 0.00 0.00 78 1020.1
20260504043022 57 203 2.0 4.0 0.00 0.00 0.00 80 1020.1
20260504042507 56 203 0.0 3.0 0.00 0.00 0.00 82 1020.2
20260504042007 55 203 2.0 3.0 0.00 0.00 0.00 84 1020.2
20260504041519 55 203 1.0 3.0 0.00 0.00 0.00 83 1020.2
20260504041008 56 203 0.0 2.0 0.00 0.00 0.00 83 1020.2
20260504040507 55 203 0.0 0.0 0.00 0.00 0.00 83 1020.1
20260504040024 56 203 0.0 0.0 0.00 0.00 0.00 83 1020.1
20260504035508 56 203 0.0 0.0 0.00 0.00 0.00 83 1020.1
20260504035005 55 203 0.0 0.0 0.00 0.00 0.00 83 1020.1
20260504034513 56 203 0.0 0.0 0.00 0.00 0.00 83 1020.3
20260504034007 55 203 0.0 0.0 0.00 0.00 0.00 83 1020.2
20260504033508 56 203 0.0 1.0 0.00 0.00 0.00 83 1020.1
20260504033022 56 203 0.0 2.0 0.00 0.00 0.00 83 1020.1
20260504032507 56 203 0.0 3.0 0.00 0.00 0.00 82 1020.2
20260504032012 57 203 1.0 3.0 0.00 0.00 0.00 80 1020.2
20260504031522 58 203 1.0 3.0 0.00 0.00 0.00 80 1020.2
20260504031007 58 203 0.0 1.0 0.00 0.00 0.00 79 1020.2
20260504030504 58 203 0.0 1.0 0.00 0.00 0.00 79 1020.2
20260504030008 58 203 0.0 2.0 0.00 0.00 0.00 79 1020.2
20260504025504 58 203 1.0 2.0 0.00 0.00 0.00 79 1020.1
20260504025004 59 203 0.0 0.0 0.00 0.00 0.00 78 1020.1
20260504024511 59 203 0.0 0.0 0.00 0.00 0.00 77 1020.0
20260504024004 59 203 0.0 0.0 0.00 0.00 0.00 76 1020.0
20260504023503 58 203 0.0 0.0 0.00 0.00 0.00 78 1020.0
20260504023016 58 203 0.0 0.0 0.00 0.00 0.00 79 1019.6
20260504022505 58 203 0.0 0.0 0.00 0.00 0.00 79 1019.6
20260504022007 58 203 0.0 2.0 0.00 0.00 0.00 79 1019.6
20260504021526 58 203 0.0 2.0 0.00 0.00 0.00 79 1019.6
20260504021008 58 203 0.0 2.0 0.00 0.00 0.00 79 1019.6
20260504020508 58 203 0.0 2.0 0.00 0.00 0.00 79 1019.7
20260504020022 59 203 1.0 2.0 0.00 0.00 0.00 78 1019.6
20260504015508 59 203 0.0 1.0 0.00 0.00 0.00 79 1019.6
20260504015004 59 203 0.0 2.0 0.00 0.00 0.00 78 1019.5
20260504014508 59 203 0.0 3.0 0.00 0.00 0.00 77 1019.5
20260504014003 59 203 1.0 3.0 0.00 0.00 0.00 77 1019.4
20260504013508 60 203 1.0 2.0 0.00 0.00 0.00 76 1019.4
20260504013012 60 203 0.0 2.0 0.00 0.00 0.00 75 1019.4
20260504012508 62 203 0.0 2.0 0.00 0.00 0.00 74 1019.4
20260504012011 62 203 0.0 4.0 0.00 0.00 0.00 72 1019.3
20260504011519 63 203 0.0 4.0 0.00 0.00 0.00 69 1019.2
20260504011008 61 203 1.0 4.0 0.00 0.00 0.00 74 1019.2
20260504010510 61 191 1.0 4.0 0.00 0.00 0.00 73 1019.1
20260504010023 61 329 1.0 2.0 0.00 0.00 0.00 73 1019.0
20260504005506 62 329 0.0 0.0 0.00 0.00 0.00 70 1018.9
20260504005007 63 329 0.0 0.0 0.00 0.00 0.00 69 1018.9
20260504004524 63 329 0.0 0.0 0.00 0.00 0.00 70 1018.8
20260504004011 64 329 0.0 1.0 0.00 0.00 0.00 68 1018.8
20260504003511 64 329 0.0 1.0 0.00 0.00 0.00 68 1018.8
20260504003008 65 329 0.0 1.0 0.00 0.00 0.00 68 1018.8
20260504002505 66 329 0.0 1.0 0.00 0.00 0.00 67 1018.8
20260504002007 67 329 0.0 1.0 0.00 0.00 0.00 64 1018.8
20260504001515 67 329 0.0 1.0 0.00 0.00 0.00 62 1018.8
20260504001008 68 32 0.0 1.0 0.00 0.00 0.00 62 1018.8
20260504000507 69 32 0.0 2.0 0.00 0.00 0.00 61 1018.7
20260504000020 71 32 0.0 3.0 0.00 0.00 0.00 54 1018.8
20260503235507 72 73 1.0 3.0 0.00 0.00 0.00 50 1018.8
20260503235007 73 315 0.0 3.0 0.00 0.00 0.00 41 1018.8
20260503234538 73 319 1.0 3.0 0.00 0.00 0.00 41 1018.8
20260503234011 73 307 2.0 3.0 0.00 0.00 0.00 43 1018.9
20260503233509 73 333 1.0 4.0 0.00 0.00 0.00 41 1019.0
20260503233025 74 336 2.0 4.0 0.00 0.00 0.00 43 1019.0
20260503232510 74 288 1.0 4.0 0.00 0.00 0.00 40 1019.0
20260503232010 74 13 1.0 4.0 0.00 0.00 0.00 40 1019.0
20260503231514 74 263 1.0 6.0 0.00 0.00 0.00 41 1018.9
20260503231008 74 314 2.0 6.0 0.00 0.00 0.00 39 1018.9
20260503230510 74 352 3.0 6.0 0.00 0.00 0.00 40 1018.9
20260503230017 74 12 2.0 5.0 0.00 0.00 0.00 41 1018.9
20260503225506 74 352 2.0 5.0 0.00 0.00 0.00 40 1019.0
20260503225006 74 352 2.0 8.0 0.00 0.00 0.00 40 1019.1
20260503224523 74 345 4.0 10.0 0.00 0.00 0.00 38 1019.1
20260503224007 74 44 5.0 10.0 0.00 0.00 0.00 40 1019.0
20260503223514 74 352 4.0 8.0 0.00 0.00 0.00 42 1019.1
20260503223028 74 322 3.0 9.0 0.00 0.00 0.00 41 1019.2
20260503222509 74 302 5.0 9.0 0.00 0.00 0.00 38 1019.1
20260503222011 74 342 3.0 9.0 0.00 0.00 0.00 42 1019.1
20260503221528 74 23 4.0 9.0 0.00 0.00 0.00 38 1019.2
20260503221015 74 267 2.0 9.0 0.00 0.00 0.00 39 1019.3
20260503220510 74 323 4.0 9.0 0.00 0.00 0.00 39 1019.3
20260503220036 75 296 5.0 9.0 0.00 0.00 0.00 39 1019.4
20260503215507 74 288 3.0 7.0 0.00 0.00 0.00 39 1019.4
20260503215006 74 284 3.0 10.0 0.00 0.00 0.00 37 1019.6
20260503214522 75 301 5.0 10.0 0.00 0.00 0.00 38 1019.6
20260503214007 74 326 3.0 9.0 0.00 0.00 0.00 40 1019.6
20260503213514 74 242 3.0 9.0 0.00 0.00 0.00 38 1019.7
20260503213026 74 338 3.0 8.0 0.00 0.00 0.00 38 1019.7
20260503212508 75 311 3.0 8.0 0.00 0.00 0.00 37 1019.7
20260503212010 75 313 2.0 8.0 0.00 0.00 0.00 37 1019.8
20260503211527 74 272 0.0 10.0 0.00 0.00 0.00 35 1019.8
20260503211015 74 248 4.0 11.0 0.00 0.00 0.00 36 1019.9
20260503210510 74 285 6.0 11.0 0.00 0.00 0.00 38 1020.0
20260503210028 75 258 3.0 9.0 0.00 0.00 0.00 37 1020.0
20260503205502 75 279 2.0 7.0 0.00 0.00 0.00 38 1020.0
20260503205001 74 352 0.0 8.0 0.00 0.00 0.00 37 1020.1
20260503204503 74 259 3.0 9.0 0.00 0.00 0.00 40 1020.2
20260503204003 74 92 3.0 9.0 0.00 0.00 0.00 35 1020.2
20260503203504 74 259 4.0 8.0 0.00 0.00 0.00 40 1020.3
20260503203010 74 162 2.0 11.0 0.00 0.00 0.00 38 1020.4
20260503202504 74 252 3.0 11.0 0.00 0.00 0.00 37 1020.4
20260503202004 75 301 7.0 11.0 0.00 0.00 0.00 37 1020.5
20260503201504 74 274 2.0 10.0 0.00 0.00 0.00 42 1020.5
20260503201006 74 217 5.0 10.0 0.00 0.00 0.00 39 1020.5
20260503200503 74 262 5.0 9.0 0.00 0.00 0.00 38 1020.6
20260503200011 73 322 2.0 8.0 0.00 0.00 0.00 36 1020.7
20260503195505 74 307 4.0 12.0 0.00 0.00 0.00 41 1020.9
20260503195007 74 266 6.0 13.0 0.00 0.00 0.00 35 1021.0
20260503194501 74 360 6.0 13.0 0.00 0.00 0.00 40 1021.1
20260503194001 74 5 3.0 8.0 0.00 0.00 0.00 45 1021.2
20260503193503 73 206 1.0 11.0 0.00 0.00 0.00 39 1021.3
20260503193003 73 73 1.0 11.0 0.00 0.00 0.00 36 1021.5
20260503192503 74 317 6.0 11.0 0.00 0.00 0.00 40 1021.5
20260503192005 73 344 1.0 9.0 0.00 0.00 0.00 40 1021.7
20260503191510 74 61 5.0 11.0 0.00 0.00 0.00 40 1021.7
20260503191007 74 275 6.0 11.0 0.00 0.00 0.00 39 1021.8
20260503190504 74 360 5.0 11.0 0.00 0.00 0.00 34 1021.9
20260503190007 73 18 2.0 10.0 0.00 0.00 0.00 36 1022.0
20260503185503 73 309 4.0 10.0 0.00 0.00 0.00 37 1022.0
20260503185004 73 259 4.0 11.0 0.00 0.00 0.00 41 1022.1
20260503184514 73 318 7.0 11.0 0.00 0.00 0.00 40 1022.1
20260503184007 73 300 5.0 10.0 0.00 0.00 0.00 40 1022.2
20260503183507 73 307 3.0 9.0 0.00 0.00 0.00 39 1022.2
20260503183021 74 342 3.0 11.0 0.00 0.00 0.00 44 1022.3
20260503182503 73 35 5.0 11.0 0.00 0.00 0.00 41 1022.3
20260503182003 72 166 3.0 7.0 0.00 0.00 0.00 40 1022.4
20260503181505 72 88 2.0 5.0 0.00 0.00 0.00 39 1022.3
20260503181004 72 9 2.0 6.0 0.00 0.00 0.00 39 1022.5
20260503180504 72 193 1.0 6.0 0.00 0.00 0.00 39 1022.7
20260503180012 72 346 2.0 8.0 0.00 0.00 0.00 43 1022.7
20260503175506 72 88 4.0 8.0 0.00 0.00 0.00 42 1022.7
20260503175004 71 98 1.0 8.0 0.00 0.00 0.00 40 1022.7
20260503174510 71 32 3.0 12.0 0.00 0.00 0.00 40 1022.8
20260503174008 72 5 8.0 12.0 0.00 0.00 0.00 39 1022.9
20260503173510 72 247 4.0 13.0 0.00 0.00 0.00 40 1023.0